Istanbul, Turkey

12:54 AM +03 on April 22, 2018 (GMT +0300)
Ataturk

Weather History for LTBA - June, 2013

Change the Weather History Date:

Tuesday, June 25, 2013

  Actual Average Record
Temperature  
Mean Temperature 82 °F -  
Max Temperature 93 °F 82 °F 93 °F (2013)
Min Temperature 70 °F 68 °F 60 °F (2005)
Cooling Degree Days 16    
Growing Degree Days 32 (Base 50)    
Moisture  
Dew Point 60 °F    
Average Humidity 49    
Maximum Humidity 73    
Minimum Humidity 21    
Precipitation  
Precipitation 0.00 in - - ()
Sea Level Pressure  
Sea Level Pressure 29.80 in    
Wind  
Wind Speed 9 mph ()    
Max Wind Speed 18 mph    
Max Gust Speed -    
Visibility 7.5 miles    
Events      
Averages and records for this station are not official NWS values.
T = Trace of Precipitation, MM = Missing Value Source: Averaged Metar Reports

Daily Weather History Graph

Daily Weather History Graph

Search for Another Location

Airport or City:

Astronomy

Jun. 25, 2013 Rise Set
Actual Time 5:33 AM EEST 8:40 PM EEST
Civil Twilight 5:00 AM EEST 9:14 PM EEST
Nautical Twilight 4:17 AM EEST 9:57 PM EEST
Astronomical Twilight 3:26 AM EEST 10:48 PM EEST
Moon 10:11 PM EEST (6/25) 7:51 AM EEST (6/25)
Length of Visible Light 16h 14m
Length of Day
15h 06m
Waning Gibbous, 94% of the Moon is Illuminated
Jun 25
Waning Gibbous
Jun 30
Last Quarter
Jul 8
New
Jul 16
First Quarter
Jul 22
Full

Hourly Weather History & Observations

Time (EEST) Temp. Heat Index Dew Point Humidity Pressure Visibility Wind Dir Wind Speed Gust Speed Precip Events Conditions
12:20 AM 77.0 °F - 59.0 °F 54% 29.80 in - NE 9.2 mph - N/A   Clear
12:50 AM 77.0 °F - 59.0 °F 54% 29.80 in - NE 6.9 mph - N/A   Clear
1:20 AM 78.8 °F - 59.0 °F 51% 29.80 in - Variable 6.9 mph - N/A   Clear
1:50 AM 77.0 °F - 57.2 °F 50% 29.80 in - NE 6.9 mph - N/A   Clear
2:20 AM 75.2 °F - 57.2 °F 53% 29.77 in - NE 6.9 mph - N/A   Clear
2:50 AM 75.2 °F - 55.4 °F 50% 29.77 in - NNE 5.8 mph - N/A   Clear
3:00 AM 76 °F - 56 °F 39% 29.78 in 6 mi NNE 5.8 mph - -  
3:20 AM 73.4 °F - 59.0 °F 61% 29.77 in - North 8.1 mph - N/A   Clear
3:50 AM 75.2 °F - 59.0 °F 57% 29.77 in - NNE 9.2 mph - N/A   Clear
4:20 AM 71.6 °F - 59.0 °F 64% 29.77 in - North 11.5 mph - N/A   Clear
4:50 AM 71.6 °F - 59.0 °F 64% 29.77 in - North 10.4 mph - N/A   Clear
5:20 AM 73.4 °F - 59.0 °F 61% 29.77 in - NNE 6.9 mph - N/A   Clear
5:50 AM 73.4 °F - 60.8 °F 65% 29.77 in - NNE 6.9 mph - N/A   Clear
6:20 AM 73.4 °F - 62.6 °F 69% 29.80 in - NNE 12.7 mph - N/A   Clear
6:50 AM 75.2 °F - 64.4 °F 69% 29.80 in - NNE 10.4 mph - N/A   Clear
7:20 AM 75.2 °F - 66.2 °F 73% 29.80 in - NE 10.4 mph - N/A   Clear
7:50 AM 78.8 °F - 66.2 °F 65% 29.80 in - Variable 6.9 mph - N/A   Clear
8:20 AM 78.8 °F - 66.2 °F 65% 29.80 in - NE 6.9 mph - N/A   Clear
8:50 AM 80.6 °F 82.7 °F 66.2 °F 61% 29.83 in - Variable 6.9 mph - N/A   Clear
9:00 AM 80 °F - 66 °F 53% 29.82 in 6 mi NNE 6.9 mph - -  
9:20 AM 80.6 °F 82.3 °F 64.4 °F 58% 29.83 in - NE 8.1 mph - N/A   Clear
9:50 AM 82.4 °F 83.4 °F 62.6 °F 51% 29.83 in - NE 9.2 mph - N/A   Clear
10:20 AM 84.2 °F 84.4 °F 60.8 °F 45% 29.83 in - NNE 10.4 mph - N/A   Clear
10:50 AM 84.2 °F 84.4 °F 60.8 °F 45% 29.83 in - ENE 10.4 mph - N/A   Clear
11:20 AM 86.0 °F 86.1 °F 60.8 °F 43% 29.80 in - NE 9.2 mph - N/A   Clear
11:50 AM 87.8 °F 87.6 °F 60.8 °F 40% 29.80 in - ENE 9.2 mph - N/A   Clear
12:20 PM 89.6 °F 88.1 °F 57.2 °F 33% 29.80 in - ENE 8.1 mph - N/A   Clear
12:50 PM 91.4 °F 90.7 °F 59.0 °F 34% 29.80 in - East 11.5 mph - N/A   Clear
1:20 PM 89.6 °F 88.1 °F 57.2 °F 33% 29.80 in - ENE 9.2 mph - N/A   Clear
1:50 PM 91.4 °F 89.9 °F 57.2 °F 31% 29.80 in - ENE 10.4 mph - N/A   Clear
2:20 PM 91.4 °F 89.9 °F 57.2 °F 31% 29.80 in - NE 11.5 mph - N/A   Clear
2:50 PM 91.4 °F 89.4 °F 55.4 °F 29% 29.80 in - NE 12.7 mph - N/A   Clear
3:00 PM 91 °F - 56 °F 21% 29.80 in 6 mi NE 12.7 mph - -  
3:20 PM 91.4 °F 89.9 °F 57.2 °F 31% 29.80 in - NNE 12.7 mph - N/A   Clear
3:50 PM 89.6 °F 87.7 °F 55.4 °F 31% 29.80 in - NE 13.8 mph - N/A   Clear
4:20 PM 89.6 °F 87.7 °F 55.4 °F 31% 29.80 in - NE 16.1 mph - N/A   Clear
4:50 PM 89.6 °F 87.7 °F 55.4 °F 31% 29.80 in - NE 16.1 mph - N/A   Clear
5:20 PM 87.8 °F 87.1 °F 59.0 °F 38% 29.80 in - NNE 17.3 mph - N/A   Clear
5:50 PM 86.0 °F 86.1 °F 60.8 °F 43% 29.80 in - NNE 18.4 mph - N/A   Clear
6:20 PM 86.0 °F 85.4 °F 59.0 °F 40% 29.80 in - NE 17.3 mph - N/A   Clear
6:50 PM 86.0 °F 86.1 °F 60.8 °F 43% 29.80 in - NE 15.0 mph - N/A   Clear
7:20 PM 84.2 °F 83.8 °F 59.0 °F 42% 29.80 in - NE 15.0 mph - N/A   Clear
7:50 PM 86.0 °F 85.4 °F 59.0 °F 40% 29.80 in - Variable 9.2 mph - N/A   Clear
8:20 PM 82.4 °F 82.9 °F 60.8 °F 48% 29.80 in - NNE 11.5 mph - N/A   Clear
8:50 PM 80.6 °F 81.1 °F 59.0 °F 48% 29.83 in - Variable 9.2 mph - N/A   Clear
9:00 PM 81 °F - 58 °F 35% 29.82 in 12 mi NE 9.2 mph - -  
9:20 PM 78.8 °F - 60.8 °F 54% 29.83 in - NNE 9.2 mph - N/A   Clear
9:50 PM 78.8 °F - 62.6 °F 57% 29.83 in - Variable 9.2 mph - N/A   Clear
10:20 PM 78.8 °F - 62.6 °F 57% 29.83 in - NNE 9.2 mph - N/A   Clear
10:50 PM 77.0 °F - 64.4 °F 65% 29.83 in - NNE 10.4 mph - N/A   Clear
11:20 PM 77.0 °F - 64.4 °F 65% 29.83 in - NNE 9.2 mph - N/A   Clear
11:50 PM 75.2 °F - 64.4 °F 69% 29.83 in - NNE 10.4 mph - N/A   Clear